Flag for Germany Weather past 2 weeks in Sankt Augustin, North Rhine-Westphalia, Germany

Now
55 °F

Broken clouds.


Feels Like: 55 °F
Forecast: 47 / 65 °F
Wind: 2 mph from Southwest

Location: Koeln / Bonn

Current Time: Aug 23, 2014 at 10:01:41 AM

Latest Report: Aug 23, 2014 at 9:20 AM


Visibility: N/A

Pressure: 29.92 "Hg

Humidity: 88%

Dew point: 52 °F

Location of Sankt AugustinLocation

Historic Weather in Sankt Augustin — Graph

°F

Sankt Augustin temperature yesterday

Maximum temperature yesterday: 66 °F (at 12:50 PM)
Minimum temperature yesterday: 52 °F (at 2:50 AM)
Average temperature yesterday: 58 °F

Past Weeks' High & Low Weather Summary

 TemperatureHumidityPressure
High79 °F (Aug 8, 12:20 PM)100% (Aug 16, 1:50 AM)30.09 "Hg (Aug 16, 1:50 AM)
Low45 °F (Aug 20, 5:20 AM)40% (Aug 18, 2:20 PM)29.62 "Hg (Aug 10, 6:20 PM)
Average60 °F78%29.88 "Hg
* Reported Aug 8 8:20 AM — Aug 23 8:50 AM, Sankt Augustin, Weather by CustomWeather, © 2014

Note: Actual official high and low records may vary slightly from our data, if they occured in-between our weather recording intervals... More about our weather records

Advertising

Sankt Augustin weather history for previous 24 hours

 ConditionsComfort  
Time TempWeatherWind HumidityBarometerVisibility
8:50 AM
Aug 23
55 °FSprinkles. Broken clouds.3 mph88%29.92 "HgN/A
8:20 AM54 °FSprinkles. Partly sunny.3 mph94%29.92 "HgN/A
7:50 AM52 °FSprinkles. Partly sunny.2 mph100%29.92 "HgN/A
7:20 AM52 °FPassing clouds.3 mph94%29.92 "HgN/A
6:50 AM50 °FPartly cloudy.2 mph94%29.92 "HgN/A
6:20 AM50 °FPassing clouds.1 mph94%29.92 "HgN/A
5:50 AM50 °FFog.5 mph94%29.89 "HgN/A
5:20 AM52 °FFog.3 mph94%29.89 "HgN/A
4:50 AM52 °FClear.3 mph88%29.89 "Hg10 mi
4:20 AM52 °FCool.2 mph94%29.89 "HgN/A
3:50 AM52 °FPartly cloudy.3 mph94%29.89 "HgN/A
3:20 AM52 °FClear.2 mph94%29.92 "Hg10 mi
2:50 AM52 °FPassing clouds.5 mph94%29.92 "HgN/A
2:20 AM52 °FClear.3 mph94%29.92 "Hg10 mi
1:50 AM52 °FClear.7 mph94%29.92 "Hg10 mi
1:20 AM55 °FClear.5 mph82%29.92 "Hg10 mi
12:50 AM55 °FClear.6 mph88%29.92 "Hg10 mi
12:20 AM55 °FClear.7 mph88%29.92 "Hg10 mi
11:50 PM
Aug 22
57 °FClear.8 mph82%29.92 "Hg10 mi
11:20 PM57 °FSprinkles. Partly cloudy.7 mph82%29.92 "HgN/A
10:50 PM57 °FClear.5 mph82%29.92 "Hg10 mi
10:20 PM55 °FPassing clouds.3 mph88%29.92 "HgN/A
9:50 PM57 °FClear.3 mph82%29.92 "Hg10 mi
9:20 PM57 °FScattered showers. Partly sunny.6 mph82%29.89 "HgN/A
8:50 PM57 °FSprinkles. Partly sunny.8 mph82%29.89 "HgN/A
8:20 PM59 °FSprinkles. Partly sunny.14 mph77%29.89 "HgN/A
7:50 PM59 °FSprinkles. Partly sunny.12 mph77%29.89 "HgN/A
7:20 PM61 °FSprinkles. Partly sunny.3 mph77%29.86 "HgN/A
6:50 PM61 °FBroken clouds.8 mph72%29.86 "HgN/A
6:20 PM63 °FBroken clouds.8 mph64%29.86 "HgN/A
5:50 PM63 °FBroken clouds.9 mph64%29.86 "HgN/A
5:20 PM63 °FSunny.6 mph73%29.86 "Hg10 mi
4:50 PM64 °FSprinkles. Broken clouds.7 mph60%29.86 "HgN/A
4:20 PM64 °FSunny.8 mph60%29.86 "Hg10 mi
3:50 PM64 °FSunny.9 mph56%29.86 "Hg10 mi
3:20 PM64 °FSunny.10 mph56%29.89 "Hg10 mi
2:50 PM66 °FBroken clouds.7 mph56%29.89 "HgN/A
2:20 PM64 °FSprinkles. Partly sunny.13 mph52%29.89 "HgN/A
1:50 PM66 °FBroken clouds.15 mph49%29.89 "HgN/A
1:20 PM64 °FPartly sunny.14 mph52%29.89 "HgN/A
12:50 PM66 °FBroken clouds.13 mph52%29.89 "HgN/A
12:20 PM64 °FBroken clouds.10 mph52%29.92 "HgN/A
11:50 AM63 °FBroken clouds.12 mph56%29.92 "HgN/A
11:20 AM63 °FPartly sunny.10 mph56%29.92 "HgN/A
10:50 AM63 °FSunny.10 mph64%29.92 "Hg10 mi
10:20 AM61 °FSunny.10 mph59%29.92 "Hg10 mi
Weather by CustomWeather, © 2014

See weather overviewHow to use our weather pages